View from above orbital plane
|
View from above satellite
|
Ground track
|
The orbit data is extracted from the following two-line orbital elements,
1 00085U 61004C 21023.90176853 .00001786 00000-0 38094-3 0 9990
2 00085 38.7771 335.6777 0394522 169.8939 191.0028 14.21571185962469
Epoch (UTC): | 23 January 2021 21:38:32 |
Eccentricity: | 0.0394522 |
inclination: | 38.7771° |
perigee height: | 536 km |
apogee height: | 1104 km |
right ascension of ascending node: | 335.6777° |
argument of perigee: | 169.8939° |
revolutions per day: | 14.21571185 |
mean anomaly at epoch: | 191.0028° |
orbit number at epoch: | 96246 |
The dashed part of the orbit path shows where the satellite is in the earth's shadow,
|
|